"Pseudo-MPEC" for P10OSPj

Created 2019 Jun 19 18:07:23 UT using Find_Orb

Click here for an explanation of pseudo-MPECs

 
 Astrometry: 
     P10OSPj  C2019 06 09rtv@I\%+e-4MM55lt`]@hL+?amM,'sUxmX4scyZRaA-oVj5xq@XhF51
     P10OSPj  C2019 06 09khLA;(s/:.\$a0B#Q^0FnU[lLV0*xUIf\D\qkXYM6uCF=FQU0wI?F51
     P10OSPj  C2019 06 093;kCPA5SaqQC5H4H\;^W^+t^6OI4xh!mZDsd?/=HJpp8r,TVcl;]F51
     P10OSPj KC2019 06 09QRfT@Bu2V?_@^n7dO_hy0'q5''w=2)*fIcD4?=t`UBQsqkbp!CA=L01
     P10OSPj KC2019 06 09XIw9;L)yl,!U*juG5`@O217\2Z$*8''R'vXdO$p+ZO/Gmx#-R?PDL01
     P10OSPj KC2019 06 09Vb$4Fq;(#v$5`.90mM0B\1iZhvytp)LEw`lHUt%+R:E`-U-[?OqPL01
     P10OSPj KC2019 06 09Rro+l?41EYb_%0nyiyAstrometry,]DFjST%r)redacted;wOtK4L01
     P10OSPj pC2019 06 09@j+i5mN;WB:Fu)sGNL!Sx*PT`Y(1mHUITD_!rYnnYio=bkh=Df!OL01
     P10OSPj KC2019 06 10t.MVK]%%'T9gsl\clickj.R[wohereY=J.8fq:n'eQ`D2%%@wCdkK88
     P10OSPj KC2019 06 10iF[wRpN!PFL8^l/R:6rEwpXVuRSnu_duqkDrAjxZ(kC[+4-Q1#cgK88
     P10OSPj KC2019 06 10y;tmk8,UW'K(Mpn`y(iD$O:1Z%4Clg9@4*YA9jeLO5LxO%Zr#`v-K88
     P10OSPj KC2019 06 10ag%PeK=$l,b%M!o)@u3UG1_'EW*,.k`oY@yxkq7#dp*??3`:ob1TV01
     P10OSPj KC2019 06 10C12'=@sWi,wi*C``4=$+GCJ4]e5S'a$1s_(mX:]k4@b#7@.^2L!QV01
     P10OSPj KC2019 06 11;.Xp6'ivd7.$NMo.O^Nlae2I#*for[),3E:E;d\B.X,E@dMmZ[wrK88
     P10OSPj KC2019 06 11ciY(U\+`=hF*3:*N%@KgRW2rv9explanationfVt=N]`ae;CJU:8K88

Station data:
(F51) Pan-STARRS 1, Haleakala  (N20.707235 W156.255910)  US/Hawaii.
   Observers N. Primak, A. Schultz, S. Watters, J. Thiel, T. Goggia. Measurer
   PS1 Science Consortium. 1.8-m Ritchey-Chrétien + CCD.
(K88) GINOP-KHK, Piszkéstető  (N47.917622 E19.893600)  Hungary.  Observer K.
   Sárneczky. 0.60-m Schmidt + CCD.
(L01) Višnjan Observatory, Tičan  (N45.290900 E13.749300)  Croatia.
   Observers K. Korlević, E. Pettarin. Measurer E. Pettarin. 1.0-m f/2.9
   reflector + CCD.
(V01) Mountainville Observatory, Alpine  (N40.448904 W111.760890)  US/Utah.

Orbital elements:  P10OSPj
   Perihelion 2019 Aug 14.177496 +/- 0.187 TT =  4:15:35 (JD 2458709.677496)
Epoch 2019 Jun 11.0 TT = JDT 2458645.5   Earth MOID: 0.0058   AutoNEOCP
M 309.47642178 +/- 0.29             (J2000 ecliptic)
n   0.78724757 +/- 0.00234          Peri.  259.21988 +/- 0.17
a   1.16161397 +/- 0.00231          Node    81.98125 +/- 0.007
e   0.2734149 +/- 0.00151           Incl.   23.25520 +/- 0.09
P   1.25/457.28d           H 24.1   G  0.15   U  8.7  
q 0.84401129 +/- 9.08e-5    Q 1.47921665 +/- 0.00468
From 15 observations 2019 June 9-11 (35.4 hr); mean residual 0".30
Residuals in arcseconds: 
190609 F51  .13-  .18+    190609 L01  .22+  .08+    190610 K88  .41-  .31+    
190609 F51  .10+  .12-    190609 L01  .36+  .09+    190610 V01  .41+  .63-    
190609 F51  .14+  .13-    190609 L01  .35+  .05+    190610 V01  .13-  .38+    
190609 L01  .10+  .52-    190610 K88  .12-  .38+    190611 K88  .13-  .21-    
190609 L01  .08-  .22-    190610 K88  .77-  .12+    190611 K88  .06+  .28+    

Ephemerides (geocentric):
Date (UTC) HH   RA              Dec         delta   r     elong  mag " sig PA
---- -- -- --  -------------   -----------  ------ ------ -----  --- ---- ---
2019 06 19 18  04 03 45.701   -34 34 57.51  .06815 .98739  63.3 22.6 13.8  80
2019 06 19 19  04 04 24.875   -34 34 31.43  .06847 .98721  63.3 22.6 13.8  80
2019 06 19 20  04 05 03.683   -34 34 04.71  .06879 .98703  63.2 22.6 13.8  80
2019 06 19 21  04 05 42.129   -34 33 37.37  .06911 .98686  63.2 22.7 13.8  80
2019 06 19 22  04 06 20.218   -34 33 09.43  .06943 .98668  63.1 22.7 13.8  80
2019 06 19 23  04 06 57.955   -34 32 40.90  .06975 .98650  63.1 22.7 13.8  80
2019 06 20 00  04 07 35.343   -34 32 11.81  .07008 .98632  63.0 22.7 13.8  80
2019 06 20 01  04 08 12.388   -34 31 42.17  .07040 .98614  63.0 22.7 13.8  80
2019 06 20 02  04 08 49.092   -34 31 12.00  .07072 .98596  62.9 22.7 13.8  79
2019 06 20 03  04 09 25.462   -34 30 41.31  .07104 .98578  62.9 22.7 13.8  79
2019 06 20 04  04 10 01.500   -34 30 10.12  .07136 .98561  62.8 22.7 13.8  79
2019 06 20 05  04 10 37.211   -34 29 38.44  .07169 .98543  62.8 22.8 13.8  79
2019 06 20 06  04 11 12.598   -34 29 06.30  .07201 .98525  62.8 22.8 13.8  79
2019 06 20 07  04 11 47.667   -34 28 33.70  .07233 .98507  62.7 22.8 13.8  79
2019 06 20 08  04 12 22.420   -34 28 00.66  .07266 .98489  62.7 22.8 13.8  79
2019 06 20 09  04 12 56.862   -34 27 27.19  .07298 .98471  62.6 22.8 13.8  79
2019 06 20 10  04 13 30.996   -34 26 53.31  .07331 .98454  62.6 22.8 13.8  79
2019 06 20 11  04 14 04.826   -34 26 19.03  .07363 .98436  62.5 22.8 13.8  79
2019 06 20 12  04 14 38.356   -34 25 44.36  .07396 .98418  62.5 22.8 13.8  78
2019 06 20 13  04 15 11.590   -34 25 09.31  .07428 .98400  62.4 22.8 13.8  78
2019 06 20 14  04 15 44.530   -34 24 33.90  .07461 .98382  62.4 22.9 13.8  78
2019 06 20 15  04 16 17.182   -34 23 58.14  .07493 .98365  62.4 22.9 13.8  78
2019 06 20 16  04 16 49.547   -34 23 22.04  .07526 .98347  62.3 22.9 13.8  78
2019 06 20 17  04 17 21.630   -34 22 45.61  .07559 .98329  62.3 22.9 13.8  78
2019 06 20 18  04 17 53.434   -34 22 08.86  .07591 .98311  62.2 22.9 13.8  78
2019 06 20 19  04 18 24.963   -34 21 31.80  .07624 .98294  62.2 22.9 13.8  78
2019 06 20 20  04 18 56.219   -34 20 54.45  .07657 .98276  62.2 22.9 13.8  78
2019 06 20 21  04 19 27.205   -34 20 16.80  .07690 .98258  62.1 22.9 13.8  78
2019 06 20 22  04 19 57.926   -34 19 38.88  .07722 .98240  62.1 22.9 13.8  78
2019 06 20 23  04 20 28.385   -34 19 00.69  .07755 .98223  62.0 22.9 13.8  77
2019 06 21 00  04 20 58.583   -34 18 22.24  .07788 .98205  62.0 23.0 13.8  77
2019 06 21 01  04 21 28.525   -34 17 43.53  .07821 .98187  62.0 23.0 13.8  77
2019 06 21 02  04 21 58.214   -34 17 04.59  .07854 .98169  61.9 23.0 13.8  77
2019 06 21 03  04 22 27.652   -34 16 25.41  .07887 .98152  61.9 23.0 13.7  77
2019 06 21 04  04 22 56.843   -34 15 46.00  .07920 .98134  61.9 23.0 13.7  77
2019 06 21 05  04 23 25.789   -34 15 06.38  .07952 .98116  61.8 23.0 13.7  77
2019 06 21 06  04 23 54.493   -34 14 26.55  .07985 .98098  61.8 23.0 13.7  77
2019 06 21 07  04 24 22.958   -34 13 46.51  .08018 .98081  61.7 23.0 13.7  77
2019 06 21 08  04 24 51.187   -34 13 06.28  .08051 .98063  61.7 23.0 13.7  77
2019 06 21 09  04 25 19.183   -34 12 25.86  .08084 .98045  61.7 23.0 13.7  77
2019 06 21 10  04 25 46.948   -34 11 45.26  .08118 .98028  61.6 23.1 13.7  77
2019 06 21 11  04 26 14.485   -34 11 04.48  .08151 .98010  61.6 23.1 13.7  76
2019 06 21 12  04 26 41.796   -34 10 23.53  .08184 .97992  61.6 23.1 13.7  76
2019 06 21 13  04 27 08.885   -34 09 42.43  .08217 .97975  61.5 23.1 13.7  76
2019 06 21 14  04 27 35.754   -34 09 01.16  .08250 .97957  61.5 23.1 13.7  76
2019 06 21 15  04 28 02.405   -34 08 19.75  .08283 .97939  61.5 23.1 13.7  76
2019 06 21 16  04 28 28.840   -34 07 38.20  .08316 .97922  61.4 23.1 13.7  76
2019 06 21 17  04 28 55.063   -34 06 56.50  .08349 .97904  61.4 23.1 13.7  76